Location: Lansingburgh
(42.7845°N, 73.6696°W)
Time: 18:08:40
(UTC+00:00)

CZ-4C R/B - Pass Details

Date: 24 January 2020
Orbit: 644 x 1358 km, 63.4° (Epoch: 25 February)

Event Time Altitude Azimuth Distance (km) Brightness Sun altitude
Rises 22:25:03 0° 321° (NW) 3,891 5.9 -5.6°
Reaches altitude 10° 22:27:35 10° 319° (NW) 3,024 5.4 -6.0°
Maximum altitude 22:34:54 66° 239° (WSW) 1,360 3.6 -7.3°
Drops below altitude 10° 22:43:08 10° 160° (SSE) 3,377 5.3 -8.7°
Sets 22:46:06 0° 158° (SSE) 4,369 5.8 -9.2°
